CW8285 Weather Reports


time (UTC)temp
F
wind
direction
speed
knots
gust
knots
rain 1hr
in
rain 24hr
in
rain mn
in
humidity
%
barometer
mb
20240222104419 35 347 0.0 0.0 0.00 0.00 0.00 77 1016.8
20240222103916 35 341 0.0 0.0 0.00 0.00 0.00 78 1016.9
20240222103415 35 350 0.0 0.9 0.00 0.00 0.00 80 1017.0
20240222102913 36 342 0.0 0.9 0.00 0.00 0.00 75 1017.0
20240222102410 35 5 0.9 0.9 0.00 0.00 0.00 76 1017.0
20240222101911 35 32 0.9 1.7 0.00 0.00 0.00 77 1016.8
20240222101410 36 343 0.0 0.9 0.00 0.00 0.00 78 1016.9
20240222100909 36 347 0.0 0.0 0.00 0.00 0.00 75 1017.0
20240222100407 36 343 0.0 0.9 0.00 0.00 0.00 74 1016.8
20240222095906 36 357 0.0 0.9 0.00 0.00 0.00 75 1016.9
20240222095402 37 356 0.0 0.9 0.00 0.00 0.00 74 1017.0
20240222094900 37 343 0.0 0.0 0.00 0.00 0.00 74 1016.9
20240222094359 37 12 0.9 0.9 0.00 0.00 0.00 74 1017.0
20240222093857 37 345 0.0 0.0 0.00 0.00 0.00 74 1017.0
20240222093356 37 7 0.9 0.9 0.00 0.00 0.00 74 1016.8
20240222092856 37 345 0.0 0.9 0.00 0.00 0.00 74 1016.9
20240222092355 37 344 0.0 0.0 0.00 0.00 0.00 73 1017.1
20240222091854 37 343 0.0 0.9 0.00 0.00 0.00 74 1017.0
20240222091354 38 343 0.0 0.0 0.00 0.00 0.00 72 1016.8
20240222090852 38 317 0.9 0.9 0.00 0.00 0.00 72 1017.0
20240222090351 37 343 0.0 0.9 0.00 0.00 0.00 73 1017.0
20240222085850 37 345 0.0 0.0 0.00 0.00 0.00 73 1017.0
20240222085348 38 343 0.0 0.9 0.00 0.00 0.00 74 1017.0
20240222084847 37 328 0.9 0.9 0.00 0.00 0.00 72 1016.9
20240222084345 37 337 0.0 0.0 0.00 0.00 0.00 73 1016.9
20240222083843 38 335 0.0 0.9 0.00 0.00 0.00 73 1017.1
20240222083343 38 339 0.0 0.0 0.00 0.00 0.00 72 1016.9
20240222082842 38 335 0.0 0.0 0.00 0.00 0.00 72 1017.0
20240222082338 38 345 0.0 0.0 0.00 0.00 0.00 71 1016.8
20240222081834 39 346 0.0 0.9 0.00 0.00 0.00 71 1016.7
20240222081332 39 327 0.0 0.9 0.00 0.00 0.00 70 1016.8
20240222080231 39 328 0.9 0.9 0.00 0.00 0.00 70 1017.3
20240222075730 39 328 0.9 0.9 0.00 0.00 0.00 71 1017.7
20240222075228 38 345 0.0 0.9 0.00 0.00 0.00 72 1017.9
20240222074728 39 328 0.9 1.7 0.00 0.00 0.00 71 1017.7
20240222074227 39 328 0.9 1.7 0.00 0.00 0.00 70 1017.7
20240222073726 38 345 0.0 0.0 0.00 0.00 0.00 72 1017.1
20240222073225 39 351 0.0 0.0 0.00 0.00 0.00 72 1017.2
20240222072724 39 348 0.0 0.0 0.00 0.00 0.00 70 1017.2
20240222072223 39 348 0.9 0.9 0.00 0.00 0.00 69 1017.6
20240222071723 39 344 0.0 0.0 0.00 0.00 0.00 70 1017.8
20240222071222 40 336 0.0 0.9 0.00 0.00 0.00 71 1017.7
20240222070720 40 331 0.9 1.7 0.00 0.00 0.00 67 1017.9
20240222070219 40 337 0.0 0.9 0.00 0.00 0.00 69 1018.0
20240222065717 41 353 0.0 0.9 0.00 0.00 0.00 69 1018.3
20240222065216 40 320 0.9 1.7 0.00 0.00 0.00 67 1018.1
20240222064716 41 316 0.9 0.9 0.00 0.00 0.00 66 1018.3
20240222064215 41 326 0.9 1.7 0.00 0.00 0.00 66 1018.3
20240222063716 40 331 0.9 0.9 0.00 0.00 0.00 69 1018.2
20240222063215 38 345 0.9 0.9 0.00 0.00 0.00 72 1018.5
20240222062714 39 345 0.0 0.0 0.00 0.00 0.00 72 1018.2
20240222062213 40 342 0.0 0.0 0.00 0.00 0.00 71 1018.3
20240222061711 39 335 0.9 0.9 0.00 0.00 0.00 70 1018.3
20240222061211 39 345 0.0 0.0 0.00 0.00 0.00 70 1018.1
20240222060710 39 345 0.9 0.9 0.00 0.00 0.00 69 1018.1
20240222060210 39 346 0.0 0.9 0.00 0.00 0.00 70 1018.0
20240222055710 39 343 0.0 0.9 0.00 0.00 0.00 71 1017.9
20240222055208 39 339 0.9 0.9 0.00 0.00 0.00 71 1017.9
20240222054706 38 303 0.9 0.9 0.00 0.00 0.00 72 1017.8
20240222054204 38 348 0.0 0.0 0.00 0.00 0.00 72 1018.0
20240222053702 38 346 0.0 0.0 0.00 0.00 0.00 72 1018.3
20240222053200 38 338 0.0 0.9 0.00 0.00 0.00 72 1018.5
20240222052659 38 356 0.0 0.9 0.00 0.00 0.00 72 1018.4
20240222052159 38 343 0.9 0.9 0.00 0.00 0.00 73 1018.2
20240222051658 38 359 0.9 0.9 0.00 0.00 0.00 73 1018.3
20240222051157 38 332 0.0 0.0 0.00 0.00 0.00 74 1018.7
20240222050655 38 354 0.0 0.9 0.00 0.00 0.00 74 1018.7
20240222050153 37 1 0.0 0.9 0.00 0.00 0.00 74 1018.6
20240222045651 37 345 0.0 0.0 0.00 0.00 0.00 75 1018.7
20240222045151 37 353 0.0 0.9 0.00 0.00 0.00 75 1018.5
20240222044650 37 342 0.0 0.0 0.00 0.00 0.00 75 1018.7
20240222044148 37 327 0.0 0.9 0.00 0.00 0.00 74 1018.7
20240222043648 37 357 0.0 0.9 0.00 0.00 0.00 74 1018.6
20240222043147 37 342 0.0 0.0 0.00 0.00 0.00 74 1019.0
20240222042646 37 1 0.0 0.9 0.00 0.00 0.00 75 1018.7
20240222042142 37 350 0.0 0.9 0.00 0.00 0.00 74 1018.7
20240222041638 37 356 0.0 0.9 0.00 0.00 0.00 74 1018.6
20240222041135 36 355 0.0 0.9 0.00 0.00 0.00 75 1019.0
20240222040633 37 3 0.9 0.9 0.00 0.00 0.00 75 1018.7
20240222040132 36 349 0.0 0.0 0.00 0.00 0.00 74 1019.1
20240222035631 36 354 0.0 0.9 0.00 0.00 0.00 74 1019.0
20240222035131 36 11 0.9 0.9 0.00 0.00 0.00 76 1019.3
20240222034630 36 17 0.9 0.9 0.00 0.00 0.00 75 1019.0
20240222034127 35 16 0.9 1.7 0.00 0.00 0.00 76 1019.1
20240222033624 35 15 0.9 0.9 0.00 0.00 0.00 77 1019.1
20240222033124 35 15 0.9 0.9 0.00 0.00 0.00 77 1019.0
20240222032623 35 2 0.0 1.7 0.00 0.00 0.00 77 1019.1
20240222032122 35 18 0.9 0.9 0.00 0.00 0.00 76 1019.2
20240222031620 36 1 0.0 0.9 0.00 0.00 0.00 78 1019.4
20240222031119 36 346 0.0 0.9 0.00 0.00 0.00 74 1019.4
20240222030618 36 4 0.9 0.9 0.00 0.00 0.00 75 1019.4
20240222030115 36 356 0.0 0.9 0.00 0.00 0.00 75 1019.4
20240222025613 36 18 0.9 0.9 0.00 0.00 0.00 74 1019.4
20240222025113 36 12 0.9 0.9 0.00 0.00 0.00 73 1019.5
20240222024611 36 11 0.9 0.9 0.00 0.00 0.00 77 1019.5
20240222024111 36 356 0.0 1.7 0.00 0.00 0.00 73 1019.4
20240222023610 36 355 0.0 1.7 0.00 0.00 0.00 73 1019.5
20240222023108 37 5 0.0 1.7 0.00 0.00 0.00 72 1019.4
20240222022607 37 12 0.9 0.9 0.00 0.00 0.00 71 1019.7
20240222022106 37 3 0.0 1.7 0.00 0.00 0.00 71 1019.5
20240222021605 37 30 1.7 1.7 0.00 0.00 0.00 72 1019.4
20240222021104 37 16 0.9 1.7 0.00 0.00 0.00 72 1019.3
20240222020604 38 355 0.0 0.9 0.00 0.00 0.00 70 1019.5
20240222020103 37 3 0.0 1.7 0.00 0.00 0.00 70 1019.6
20240222015603 37 2 0.0 1.7 0.00 0.00 0.00 73 1019.4
20240222015102 38 14 0.9 1.7 0.00 0.00 0.00 71 1019.4
20240222014601 37 32 0.9 1.7 0.00 0.00 0.00 69 1019.5
20240222014100 37 347 0.0 0.0 0.00 0.00 0.00 70 1019.5
20240222013558 38 345 0.0 0.0 0.00 0.00 0.00 68 1019.7
20240222013057 39 3 0.0 0.9 0.00 0.00 0.00 68 1019.6
20240222012554 38 6 0.9 0.9 0.00 0.00 0.00 68 1019.8
20240222012054 38 19 0.9 0.9 0.00 0.00 0.00 70 1019.8
20240222011552 38 17 0.9 1.7 0.00 0.00 0.00 68 1020.0
20240222011051 38 347 0.0 0.0 0.00 0.00 0.00 69 1019.6
20240222010550 39 349 0.0 0.0 0.00 0.00 0.00 67 1019.7
20240222010051 39 19 0.9 0.9 0.00 0.00 0.00 67 1019.8
20240222005549 39 5 0.9 0.9 0.00 0.00 0.00 67 1020.0
20240222005048 39 17 0.9 0.9 0.00 0.00 0.00 66 1019.8
20240222004548 40 344 0.0 0.0 0.00 0.00 0.00 65 1019.8
20240222004046 40 17 0.9 0.9 0.00 0.00 0.00 67 1019.8
20240222003543 41 346 0.0 0.9 0.00 0.00 0.00 66 1019.7
20240222003042 41 14 0.9 0.9 0.00 0.00 0.00 65 1019.8
20240222002542 41 0 0.0 0.9 0.00 0.00 0.00 65 1019.8
20240222002040 41 346 0.0 0.0 0.00 0.00 0.00 64 1019.5
20240222001538 42 29 0.9 1.7 0.00 0.00 0.00 64 1019.6
20240222001035 42 13 0.9 0.9 0.00 0.00 0.00 61 1020.0
20240222000534 42 3 0.0 0.9 0.00 0.00 0.00 62 1019.8
20240222000033 43 1 0.0 0.9 0.00 0.00 0.00 60 1019.8
20240221235529 43 357 0.0 0.0 0.00 0.00 0.00 60 1019.9
20240221235028 44 354 0.0 0.9 0.00 0.00 0.00 58 1019.9
20240221234524 44 356 0.0 0.9 0.00 0.00 0.00 56 1020.2
20240221234023 45 0 0.0 0.9 0.00 0.00 0.00 54 1019.9
20240221233521 46 21 0.9 0.9 0.00 0.00 0.00 53 1020.0
20240221233019 46 9 0.9 0.9 0.00 0.00 0.00 52 1019.8
20240221232516 47 355 0.0 0.9 0.00 0.00 0.00 52 1019.6
20240221232015 48 1 0.0 0.9 0.00 0.00 0.00 51 1019.8
20240221231511 48 350 0.0 0.0 0.00 0.00 0.00 49 1019.8
20240221230956 49 351 0.0 0.0 0.00 0.00 0.00 48 1020.2
20240221230455 50 354 0.0 0.9 0.00 0.00 0.00 48 1019.8
20240221225955 51 328 1.7 2.6 0.00 0.00 0.00 44 1019.8
20240221225454 51 322 0.9 0.9 0.00 0.00 0.00 45 1019.9
20240221224954 52 346 0.0 2.6 0.00 0.00 0.00 44 1019.7
20240221224453 52 325 0.9 4.3 0.00 0.00 0.00 43 1019.7
20240221223951 52 322 0.9 0.9 0.00 0.00 0.00 45 1019.8
20240221223451 52 347 0.0 0.0 0.00 0.00 0.00 44 1019.9
20240221222951 52 294 1.7 1.7 0.00 0.00 0.00 42 1019.9
20240221222449 52 298 2.6 2.6 0.00 0.00 0.00 42 1019.6
20240221221946 52 355 0.0 0.9 0.00 0.00 0.00 43 1019.8
20240221221447 52 357 0.0 0.9 0.00 0.00 0.00 44 1019.7
20240221220940 52 91 2.6 4.3 0.00 0.00 0.00 43 1019.8
20240221220439 52 300 0.9 2.6 0.00 0.00 0.00 42 1019.7
20240221215938 52 349 0.9 0.9 0.00 0.00 0.00 43 1019.5
20240221215438 52 114 2.6 2.6 0.00 0.00 0.00 43 1019.6
20240221214935 52 68 2.6 5.2 0.00 0.00 0.00 42 1019.6
20240221214435 53 106 2.6 5.2 0.00 0.00 0.00 43 1019.7
20240221213934 53 325 0.9 4.3 0.00 0.00 0.00 41 1019.5
20240221213433 54 94 3.5 4.3 0.00 0.00 0.00 41 1019.7
20240221212932 53 303 1.7 2.6 0.00 0.00 0.00 42 1019.8
20240221212431 54 57 6.1 6.1 0.00 0.00 0.00 40 1019.7
20240221211930 54 349 0.0 1.7 0.00 0.00 0.00 40 1019.7
20240221211429 54 84 3.5 4.3 0.00 0.00 0.00 41 1019.7
20240221210927 56 359 0.9 2.6 0.00 0.00 0.00 39 1019.6
20240221210425 55 32 0.9 7.0 0.00 0.00 0.00 39 1019.8
20240221205924 58 154 1.7 5.2 0.00 0.00 0.00 36 1019.7
20240221205422 57 322 0.0 1.7 0.00 0.00 0.00 36 1019.9
20240221204921 58 86 2.6 4.3 0.00 0.00 0.00 36 1020.2
20240221204419 57 338 0.0 1.7 0.00 0.00 0.00 36 1019.9
20240221203917 60 6 0.9 1.7 0.00 0.00 0.00 33 1020.0
20240221203416 58 307 0.0 2.6 0.00 0.00 0.00 32 1020.4
20240221202915 58 320 0.9 2.6 0.00 0.00 0.00 34 1020.3
20240221202414 58 290 2.6 2.6 0.00 0.00 0.00 32 1020.3
20240221201914 58 276 2.6 2.6 0.00 0.00 0.00 32 1020.7
20240221201414 59 312 1.7 2.6 0.00 0.00 0.00 32 1020.5
20240221200913 59 322 0.0 1.7 0.00 0.00 0.00 32 1020.5
20240221200412 59 318 0.9 2.6 0.00 0.00 0.00 32 1020.6
20240221195912 61 310 0.0 0.9 0.00 0.00 0.00 31 1020.6
20240221195409 61 323 0.0 0.9 0.00 0.00 0.00 33 1020.7
20240221194909 59 267 0.9 2.6 0.00 0.00 0.00 34 1020.7
20240221194407 59 311 0.9 2.6 0.00 0.00 0.00 32 1020.7
20240221193907 58 52 1.7 2.6 0.00 0.00 0.00 34 1020.7
20240221193406 59 294 0.9 1.7 0.00 0.00 0.00 33 1020.6
20240221192906 58 284 3.5 4.3 0.00 0.00 0.00 33 1020.9
20240221192403 57 312 0.9 2.6 0.00 0.00 0.00 34 1020.9
20240221191901 58 300 2.6 4.3 0.00 0.00 0.00 34 1020.7
20240221191359 57 317 1.7 1.7 0.00 0.00 0.00 34 1021.1
20240221190858 56 291 2.6 5.2 0.00 0.00 0.00 35 1021.2
20240221190355 56 316 1.7 4.3 0.00 0.00 0.00 35 1021.2
20240221185854 56 294 1.7 4.3 0.00 0.00 0.00 35 1021.5
20240221185352 55 245 2.6 2.6 0.00 0.00 0.00 34 1021.2
20240221184847 55 327 1.7 2.6 0.00 0.00 0.00 35 1021.3
20240221184346 56 286 0.9 1.7 0.00 0.00 0.00 35 1021.6
20240221183846 55 282 3.5 5.2 0.00 0.00 0.00 36 1021.7
20240221183344 55 263 4.3 5.2 0.00 0.00 0.00 35 1021.7
20240221182843 54 318 0.0 2.6 0.00 0.00 0.00 36 1021.7
20240221182339 54 315 2.6 2.6 0.00 0.00 0.00 37 1021.9
20240221181838 54 241 0.9 2.6 0.00 0.00 0.00 35 1022.0
20240221181337 54 287 2.6 4.3 0.00 0.00 0.00 36 1022.2
20240221180836 55 283 2.6 2.6 0.00 0.00 0.00 36 1022.6
20240221180336 53 298 3.5 4.3 0.00 0.00 0.00 37 1022.6
20240221175836 53 284 2.6 4.3 0.00 0.00 0.00 35 1023.1
20240221175335 53 272 2.6 4.3 0.00 0.00 0.00 37 1023.5
20240221174833 54 296 2.6 5.2 0.00 0.00 0.00 35 1023.2
20240221174332 54 321 1.7 2.6 0.00 0.00 0.00 38 1023.2
20240221173831 53 335 1.7 4.3 0.00 0.00 0.00 40 1023.1
20240221173329 52 324 1.7 2.6 0.00 0.00 0.00 40 1023.5
20240221172827 54 329 0.0 2.6 0.00 0.00 0.00 37 1023.5
20240221172324 52 335 1.7 2.6 0.00 0.00 0.00 40 1023.4
20240221171803 52 312 2.6 4.3 0.00 0.00 0.00 42 1023.5
20240221171302 52 206 0.0 5.2 0.00 0.00 0.00 40 1023.5
20240221170800 51 233 1.7 1.7 0.00 0.00 0.00 39 1023.5
20240221170300 51 272 2.6 4.3 0.00 0.00 0.00 43 1024.1
20240221165759 51 277 3.5 6.1 0.00 0.00 0.00 41 1023.8
20240221165256 50 281 2.6 2.6 0.00 0.00 0.00 42 1024.4
20240221164741 50 280 1.7 2.6 0.00 0.00 0.00 43 1024.4
20240221164241 50 299 1.7 4.3 0.00 0.00 0.00 44 1023.8
20240221163740 50 287 1.7 4.3 0.00 0.00 0.00 44 1023.9
20240221163238 49 298 2.6 2.6 0.00 0.00 0.00 45 1023.8
20240221162736 49 289 1.7 2.6 0.00 0.00 0.00 44 1024.3
20240221162234 49 330 0.0 1.7 0.00 0.00 0.00 44 1024.3
20240221161721 48 304 1.7 1.7 0.00 0.00 0.00 45 1024.4
20240221161220 47 290 3.5 5.2 0.00 0.00 0.00 46 1024.6
20240221160720 46 333 0.9 0.9 0.00 0.00 0.00 49 1024.8
20240221160218 46 276 2.6 2.6 0.00 0.00 0.00 49 1024.7
20240221155717 46 270 2.6 2.6 0.00 0.00 0.00 49 1025.1
20240221155215 46 316 0.9 2.6 0.00 0.00 0.00 48 1025.1
20240221154713 46 300 1.7 4.3 0.00 0.00 0.00 49 1025.2
20240221154211 46 266 2.6 2.6 0.00 0.00 0.00 50 1025.1
20240221153710 46 290 1.7 2.6 0.00 0.00 0.00 53 1025.2
20240221153205 45 291 2.6 2.6 0.00 0.00 0.00 52 1025.1
20240221152704 45 321 1.7 2.6 0.00 0.00 0.00 52 1025.0
20240221152201 45 295 0.9 1.7 0.00 0.00 0.00 51 1025.0
20240221151701 46 28 0.9 1.7 0.00 0.00 0.00 49 1025.1
20240221151200 46 256 0.9 0.9 0.00 0.00 0.00 49 1025.0
20240221150651 45 350 0.9 0.9 0.00 0.00 0.00 51 1025.2
20240221150151 45 343 0.0 0.9 0.00 0.00 0.00 52 1025.0
20240221145650 44 261 0.9 1.7 0.00 0.00 0.00 54 1024.9
20240221145149 43 47 1.7 1.7 0.00 0.00 0.00 54 1025.1
20240221144648 43 345 0.0 1.7 0.00 0.00 0.00 56 1025.1
20240221144148 42 67 1.7 2.6 0.00 0.00 0.00 56 1025.2
20240221143647 42 282 0.9 1.7 0.00 0.00 0.00 57 1025.4
20240221143147 41 7 0.9 1.7 0.00 0.00 0.00 58 1025.2
20240221142647 41 107 0.9 1.7 0.00 0.00 0.00 59 1025.6
20240221142146 41 121 0.9 1.7 0.00 0.00 0.00 58 1025.4
20240221141646 41 27 0.9 0.9 0.00 0.00 0.00 60 1025.2
20240221141144 40 345 0.0 0.9 0.00 0.00 0.00 61 1025.1
20240221140644 40 336 0.0 0.9 0.00 0.00 0.00 63 1025.4
20240221140142 40 335 0.0 0.9 0.00 0.00 0.00 64 1025.2
20240221135640 39 6 0.0 0.9 0.00 0.00 0.00 65 1025.5
20240221135138 38 0 0.0 0.9 0.00 0.00 0.00 67 1025.2
20240221134637 38 347 0.0 0.9 0.00 0.00 0.00 69 1025.1
20240221134136 37 343 0.0 0.9 0.00 0.00 0.00 70 1025.4
20240221133636 36 350 0.0 0.0 0.00 0.00 0.00 74 1025.2
20240221133134 36 354 0.0 0.9 0.00 0.00 0.00 75 1025.0
20240221132632 35 13 0.0 1.7 0.00 0.00 0.00 75 1025.1
20240221132132 34 46 0.9 1.7 0.00 0.00 0.00 73 1025.0
20240221131632 33 30 0.0 1.7 0.00 0.00 0.00 78 1024.8
20240221131132 32 354 0.0 0.0 0.00 0.00 0.00 79 1024.9
20240221130631 32 26 0.9 0.9 0.00 0.00 0.00 81 1024.8
20240221130129 31 41 0.9 1.7 0.00 0.00 0.00 81 1024.9
20240221125627 31 4 0.0 1.7 0.00 0.00 0.00 81 1024.7
20240221125125 30 88 1.7 2.6 0.00 0.00 0.00 83 1024.7
20240221124625 30 86 1.7 2.6 0.00 0.00 0.00 85 1024.9
20240221124124 29 97 2.6 2.6 0.00 0.00 0.00 84 1024.5
20240221123623 29 86 1.7 2.6 0.00 0.00 0.00 85 1024.8
20240221123123 29 67 0.9 2.6 0.00 0.00 0.00 85 1024.7
20240221122622 29 76 1.7 2.6 0.00 0.00 0.00 85 1024.6
20240221122121 29 93 1.7 2.6 0.00 0.00 0.00 84 1024.4
20240221121619 28 65 1.7 2.6 0.00 0.00 0.00 87 1024.5
20240221121119 28 14 0.9 0.9 0.00 0.00 0.00 86 1024.5
20240221120618 28 359 0.0 0.9 0.00 0.00 0.00 86 1024.6
20240221120118 29 354 0.0 0.9 0.00 0.00 0.00 86 1024.3
20240221115616 29 343 0.0 0.0 0.00 0.00 0.00 85 1024.3
20240221115115 29 21 0.9 0.9 0.00 0.00 0.00 84 1024.3
20240221114614 29 354 0.0 0.9 0.00 0.00 0.00 83 1024.2
20240221114113 30 33 0.9 1.7 0.00 0.00 0.00 82 1024.3
20240221113612 30 67 1.7 1.7 0.00 0.00 0.00 82 1024.2
20240221113112 30 6 0.0 0.9 0.00 0.00 0.00 82 1024.1
20240221112611 30 65 1.7 1.7 0.00 0.00 0.00 81 1024.3
20240221112109 30 25 0.9 1.7 0.00 0.00 0.00 83 1023.9
20240221111607 29 27 0.9 1.7 0.00 0.00 0.00 84 1024.1
20240221111105 29 349 0.0 0.9 0.00 0.00 0.00 83 1023.9
20240221110604 29 7 0.0 0.9 0.00 0.00 0.00 83 1023.8
20240221110105 29 343 0.0 0.0 0.00 0.00 0.00 82 1023.8
20240221105603 30 353 0.0 0.9 0.00 0.00 0.00 80 1023.9
20240221105103 30 3 0.0 1.7 0.00 0.00 0.00 79 1023.9